Regional Weather Roundup
Issued by NWS

Home | Current Version | Previous Version | Text Only | Print | Product List | Glossary On
Versions: 1 2 3 4 5 6 7 8 9 10 11 12 13 14 15 16 17 18 19 20 21 22 23 24 25 26 27
000
ASUS45 KPSR 181210
RWRAZ

ARIZONA HOURLY REGIONAL WEATHER ROUNDUP
NATIONAL WEATHER SERVICE PHOENIX AZ
500 AM MST WED OCT 18 2017

NOTE: FAIR INDICATES FEW OR NO CLOUDS BELOW 12,000 FEET WITH NO
SIGNIFICANT WEATHER AND/OR OBSTRUCTIONS TO VISIBILITY.

AZZ001>003-036-181300-
NORTHWEST ARIZONA

CITY           SKY/WX    TMP DP  RH WIND       PRES   REMARKS
BULLHEAD CITY  CLEAR     66  21  18 CALM      29.91R
KINGMAN        CLEAR     53  26  35 SE6       30.05S
6HR MIN TEMP:  53; 6HR MAX TEMP:  67;

$$

AZZ004>008-015-016-018-181300-
NORTH CENTRAL ARIZONA

CITY           SKY/WX    TMP DP  RH WIND       PRES   REMARKS
GRAND CANYON   PTCLDY    33  18  53 CALM      30.26S HAZE
6HR MIN TEMP:  32; 6HR MAX TEMP:  39;

WILLIAMS       CLEAR     39  27  60 S12       30.26S WCI  32
PRESCOTT       CLEAR     51  33  50 S6        30.17R
6HR MIN TEMP:  49; 6HR MAX TEMP:  59;

FLAGSTAFF      PTCLDY    36  23  59 CALM      30.28R
6HR MIN TEMP:  36; 6HR MAX TEMP:  39;

PAYSON           N/A     55  36  47 CALM      30.18R
PAGE           MOCLDY    51  20  29 W5        30.14R
6HR MIN TEMP:  51; 6HR MAX TEMP:  58;

$$

AZZ009>014-017-181300-
NORTHEAST ARIZONA

CITY           SKY/WX    TMP DP  RH WIND       PRES   REMARKS
WINSLOW        MOCLDY    42  20  41 CALM      30.19R
6HR MIN TEMP:  41; 6HR MAX TEMP:  57;

SAINT JOHNS    PTCLDY    46  30  53 CALM      30.22R
6HR MIN TEMP:  44; 6HR MAX TEMP:  58;

WINDOW ROCK    PTCLDY    32   8  36 CALM      30.29R
6HR MIN TEMP:  31; 6HR MAX TEMP:  40;

SHOW LOW       PTCLDY    52  36  54 SE5       30.25S
$$

AZZ540-542>544-546-548-181300-
GREATER PHOENIX AREA

CITY           SKY/WX    TMP DP  RH WIND       PRES   REMARKS
PHOENIX        MOCLDY    73  50  44 E3        29.89R
6HR MIN TEMP:  73; 6HR MAX TEMP:  81;

BUCKEYE        CLEAR     64  32  29 NE6       29.91R
LUKE AFB       PTCLDY    67  40  38 CALM      29.90R
6HR MIN TEMP:  67; 6HR MAX TEMP:  79;

DEER VALLEY    CLEAR     69  42  37 CALM      29.92R
6HR MIN TEMP:  68; 6HR MAX TEMP:  77;

SCOTTSDALE     PTCLDY    69  49  48 CALM      29.93R
6HR MIN TEMP:  68; 6HR MAX TEMP:  81;

MESA-GATEWAY   CLEAR     66  43  42 E7        29.93R
$$

AZZ539-553-181300-
SOUTHWEST MARICOPA COUNTY AND PINAL COUNTY

CITY           SKY/WX    TMP DP  RH WIND       PRES   REMARKS
CASA GRANDE    NOT AVBL
$$

AZZ503-504-507>509-181300-
SOUTHEAST ARIZONA

CITY           SKY/WX    TMP DP  RH WIND       PRES   REMARKS
TUCSON         MOCLDY    69  40  34 S7        30.02R
6HR MIN TEMP:  69; 6HR MAX TEMP:  76;

DAVIS-MONTHAN  PTCLDY    70  39  32 E2        30.00R
NOGALES        MOCLDY    63  44  50 CALM      30.09R
6HR MIN TEMP:  63; 6HR MAX TEMP:  73;

SIERRA VISTA   CLOUDY    69  40  34 SW7       30.15R
6HR MIN TEMP:  68; 6HR MAX TEMP:  72;

DOUGLAS        MOCLDY    65  44  46 N6        30.10S
6HR MIN TEMP:  62; 6HR MAX TEMP:  74;

SAFFORD        MOCLDY    62  38  40 E5        30.03S
6HR MIN TEMP:  60; 6HR MAX TEMP:  69;

$$

AZZ532-181300-
SOUTHWEST ARIZONA

CITY           SKY/WX    TMP DP  RH WIND       PRES   REMARKS
YUMA           CLEAR     68  37  32 CALM      29.85R
6HR MIN TEMP:  67; 6HR MAX TEMP:  76;

$$

CAZ041-043-047-048-061-525>527-560>570-181300-
SOUTHERN CALIFORNIA

CITY           SKY/WX    TMP DP  RH WIND       PRES   REMARKS
DOWNTOWN L.A.  CLEAR     71  60  68 CALM      29.91S
6HR MIN TEMP:  69; 6HR MAX TEMP:  76;

L.A. AIRPORT   PTCLDY    67  63  87 E5        29.91F
6HR MIN TEMP:  66; 6HR MAX TEMP:  73;

SAN DIEGO      PTCLDY    68  64  87 CALM      29.95S
6HR MIN TEMP:  68; 6HR MAX TEMP:  73;

BURBANK        CLEAR     69  53  56 E6        29.92S
6HR MIN TEMP:  69; 6HR MAX TEMP:  76;

ONTARIO        PTCLDY    68  40  35 NE3       29.94R
6HR MIN TEMP:  66; 6HR MAX TEMP:  75;

RIVERSIDE      CLEAR     66  44  45 NE3       29.94R
6HR MIN TEMP:  66; 6HR MAX TEMP:  72;

PALM SPRINGS   MOCLDY    76  35  22 NW6       29.88S
6HR MIN TEMP:  72; 6HR MAX TEMP:  82;

EL CENTRO NAS  PTCLDY    69  27  20 W5        29.86R
6HR MIN TEMP:  65; 6HR MAX TEMP:  76;

IMPERIAL       PTCLDY    67  37  33 W6        29.83S
6HR MIN TEMP:  67; 6HR MAX TEMP:  74;

BLYTHE         PTCLDY    63  17  17 NE6       29.88R
6HR MIN TEMP:  63; 6HR MAX TEMP:  77;

NEEDLES        CLEAR     67  12  12 CALM      29.92R
6HR MIN TEMP:  66; 6HR MAX TEMP:  76;

$$

NVZ020-UTZ003-181300-
SOUTHERN NEVADA-UTAH

CITY           SKY/WX    TMP DP  RH WIND       PRES   REMARKS
LAS VEGAS      PTCLDY    62  19  19 S5        30.00R
6HR MIN TEMP:  62; 6HR MAX TEMP:  73;

SALT LAKE CITY MOCLDY    42  33  70 SE7       30.16S
6HR MIN TEMP:  41; 6HR MAX TEMP:  50;

$$

NMZ009-TXZ055-181300-
NEW MEXICO-WEST TEXAS

CITY           SKY/WX    TMP DP  RH WIND       PRES   REMARKS
ALBUQUERQUE    CLOUDY    50  18  28 N7        30.22R
6HR MIN TEMP:  48; 6HR MAX TEMP:  58;

EL PASO        MOCLDY    63  44  50 CALM      30.11R
6HR MIN TEMP:  60; 6HR MAX TEMP:  68;

$$


........................KEY........................
SKY/WX - SKY CONDITION/WEATHER
TMP    - TEMPERATURE IN FAHRENHEIT
DP     - DEW POINT IN FAHRENHEIT
RH     - RELATIVE HUMIDITY IN PERCENT
WIND   - DIRECTION AND SPEED IN MILES PER HOUR (MPH)
VRB    - VARIABLE WIND DIRECTION
PRES   - MEAN SEA LEVEL PRESSURE IN INCHES OF MERCURY
         F - FALLING PRESSURE   R - RISING PRESSURE
         S - STEADY PRESSURE
VSB    - VISIBILITY IN MILES
HX     - HEAT INDEX IN FAHRENHEIT
WCI    - WIND CHILL INDEX IN FAHRENHEIT
TC     - TEMPERATURE IN CELSIUS WHICH IS ALSO KNOWN AS
         TEMPERATURE IN CENTIGRADE
AFB    - AIR FORCE BASE
         LUKE AFB IS LUKE AIR FORCE BASE
         DAVIS-MONTHAN IS DAVIS-MONTHAN AIR FORCE BASE
NAS    - NAVAL AIR STATION
         EL CENTRO NAS IS EL CENTRO NAVAL AIR STATION
N/A    - NOT AVAILABLE





USA.gov is the U.S. government's official web portal to all federal, state and local government web resources and services.